Time,TemperatureF,DewpointF,PressureIn,WindDirection,WindDirectionDegrees,WindSpeedMPH,WindSpeedGustMPH,Humidity,HourlyPrecipIn,Conditions,Clouds,dailyrainin,SolarRadiationWatts/m^2,SoftwareType,DateUTC
2013-04-05 00:02:00,44.5,24.5,30.01,WNW,282,3.5,3.5,45,0.00,CLR,,0.00,0.0,WeatherDisplay:10.37,2013-04-05 05:02:00,
2013-04-05 00:07:00,44.5,24.5,30.01,WSW,247,4.6,4.6,45,0.00,CLR,,0.00,0.0,WeatherDisplay:10.37,2013-04-05 05:07:00,
2013-04-05 00:12:00,44.6,24.5,30.01,WSW,254,4.6,4.6,45,0.00,CLR,,0.00,0.0,WeatherDisplay:10.37,2013-04-05 05:12:00,
2013-04-05 00:17:00,44.5,24.5,30.00,WSW,248,3.5,3.5,45,0.00,CLR,,0.00,0.0,WeatherDisplay:10.37,2013-04-05 05:17:00,
2013-04-05 00:22:00,44.3,24.8,30.01,West,277,3.5,3.5,46,0.00,CLR,,0.00,0.0,WeatherDisplay:10.37,2013-04-05 05:22:00,
2013-04-05 00:27:00,44.2,24.7,30.01,WSW,246,2.3,2.3,46,0.00,CLR,,0.00,0.0,WeatherDisplay:10.37,2013-04-05 05:27:00,
2013-04-05 00:32:00,44.5,25.0,30.01,WSW,238,4.6,4.6,46,0.00,CLR,,0.00,0.0,WeatherDisplay:10.37,2013-04-05 05:32:00,
2013-04-05 00:37:00,45.1,25.0,30.01,West,279,3.5,3.5,45,0.00,CLR,,0.00,0.0,WeatherDisplay:10.37,2013-04-05 05:37:00,
2013-04-05 00:42:00,45.3,25.7,30.01,WNW,302,3.5,3.5,46,0.00,CLR,,0.00,0.0,WeatherDisplay:10.37,2013-04-05 05:42:00,
2013-04-05 00:47:00,45.6,27.0,30.01,NW,311,5.8,5.8,48,0.00,CLR,,0.00,0.0,WeatherDisplay:10.37,2013-04-05 05:47:00,
2013-04-05 00:52:00,45.8,27.2,30.01,WNW,296,9.2,9.2,48,0.00,CLR,,0.00,0.0,WeatherDisplay:10.37,2013-04-05 05:52:00,
2013-04-05 00:57:00,45.8,26.7,30.01,NW,306,10.4,10.4,47,0.00,CLR,,0.00,0.0,WeatherDisplay:10.37,2013-04-05 05:57:00,
2013-04-05 01:02:00,45.5,26.9,30.01,NNW,327,8.1,8.1,48,0.00,CLR,,0.00,0.0,WeatherDisplay:10.37,2013-04-05 06:02:00,
2013-04-05 01:07:00,44.8,26.8,30.01,WNW,302,8.1,8.1,49,0.00,CLR,,0.00,0.0,WeatherDisplay:10.37,2013-04-05 06:07:00,
2013-04-05 01:12:00,44.2,27.2,30.02,NW,309,7.0,7.0,51,0.00,CLR,,0.00,0.0,WeatherDisplay:10.37,2013-04-05 06:12:00,
2013-04-05 01:17:00,43.7,28.1,30.02,NW,306,9.2,9.2,54,0.00,CLR,,0.00,0.0,WeatherDisplay:10.37,2013-04-05 06:17:00,
2013-04-05 01:22:00,43.8,28.7,30.02,NW,304,9.0,9.0,55,0.00,CLR,,0.00,0.0,WeatherDisplay:10.37,2013-04-05 06:22:00,
2013-04-05 01:27:00,43.8,29.1,30.02,NW,304,9.2,9.2,56,0.00,CLR,,0.00,0.0,WeatherDisplay:10.37,2013-04-05 06:27:00,
2013-04-05 01:32:00,43.8,29.5,30.02,NW,311,9.2,9.2,57,0.00,CLR,,0.00,0.0,WeatherDisplay:10.37,2013-04-05 06:32:00,
2013-04-05 01:37:00,43.8,29.5,30.02,NW,320,9.2,9.2,57,0.00,CLR,,0.00,0.0,WeatherDisplay:10.37,2013-04-05 06:37:00,
2013-04-05 01:42:00,43.6,29.8,30.02,NW,317,9.2,9.2,58,0.00,CLR,,0.00,0.0,WeatherDisplay:10.37,2013-04-05 06:42:00,
2013-04-05 01:47:00,43.2,29.4,30.02,WNW,299,9.2,9.2,58,0.00,CLR,,0.00,0.0,WeatherDisplay:10.37,2013-04-05 06:47:00,
2013-04-05 01:52:00,42.7,28.9,30.02,NW,317,9.2,9.2,58,0.00,CLR,,0.00,0.0,WeatherDisplay:10.37,2013-04-05 06:52:00,
2013-04-05 01:58:00,42.2,28.9,30.02,NW,315,10.4,10.4,59,0.00,CLR,,0.00,0.0,WeatherDisplay:10.37,2013-04-05 06:58:00,
2013-04-05 02:03:00,41.8,29.3,30.02,WNW,302,9.2,9.2,61,0.00,CLR,,0.00,0.0,WeatherDisplay:10.37,2013-04-05 07:03:00,
2013-04-05 02:08:00,41.5,29.0,30.02,NW,304,6.9,6.9,61,0.00,CLR,,0.00,0.0,WeatherDisplay:10.37,2013-04-05 07:08:00,
2013-04-05 02:13:00,41.3,30.0,30.02,NW,317,5.8,5.8,64,0.00,CLR,,0.00,0.0,WeatherDisplay:10.37,2013-04-05 07:13:00,
2013-04-05 02:18:00,41.2,29.9,30.02,NNW,328,8.1,8.1,64,0.00,CLR,,0.00,0.0,WeatherDisplay:10.37,2013-04-05 07:18:00,
2013-04-05 02:23:00,41.0,30.1,30.02,NNW,327,6.9,6.9,65,0.00,CLR,,0.00,0.0,WeatherDisplay:10.37,2013-04-05 07:23:00,
2013-04-05 02:28:00,40.6,29.7,30.02,NW,321,5.8,5.8,65,0.00,CLR,,0.00,0.0,WeatherDisplay:10.37,2013-04-05 07:28:00,
2013-04-05 02:33:00,40.3,30.2,30.02,NW,313,5.8,5.8,67,0.00,CLR,,0.00,0.0,WeatherDisplay:10.37,2013-04-05 07:33:00,
2013-04-05 02:38:00,40.1,30.0,30.02,NW,306,6.9,6.9,67,0.00,CLR,,0.00,0.0,WeatherDisplay:10.37,2013-04-05 07:38:00,
2013-04-05 02:43:00,39.9,30.2,30.02,NW,320,6.9,6.9,68,0.00,CLR,,0.00,0.0,WeatherDisplay:10.37,2013-04-05 07:43:00,
2013-04-05 02:48:00,39.7,30.4,30.02,NW,305,6.9,6.9,69,0.00,CLR,,0.00,0.0,WeatherDisplay:10.37,2013-04-05 07:48:00,
2013-04-05 02:53:00,39.7,30.7,30.02,NW,305,7.0,7.0,70,0.00,CLR,,0.00,0.0,WeatherDisplay:10.37,2013-04-05 07:53:00,
2013-04-05 02:58:00,39.8,30.8,30.03,NW,322,7.0,7.0,70,0.00,CLR,,0.00,0.0,WeatherDisplay:10.37,2013-04-05 07:58:00,
2013-04-05 03:03:00,39.7,30.7,30.03,NW,308,7.0,7.0,70,0.00,CLR,,0.00,0.0,WeatherDisplay:10.37,2013-04-05 08:03:00,
2013-04-05 03:08:00,39.9,31.3,30.03,NW,313,8.1,8.1,71,0.00,CLR,,0.00,0.0,WeatherDisplay:10.37,2013-04-05 08:08:00,
2013-04-05 03:13:00,39.9,30.9,30.03,NW,306,5.8,5.8,70,0.00,CLR,,0.00,0.0,WeatherDisplay:10.37,2013-04-05 08:13:00,
2013-04-05 03:18:00,39.9,30.5,30.03,NW,323,6.9,6.9,69,0.00,CLR,,0.00,0.0,WeatherDisplay:10.37,2013-04-05 08:18:00,
2013-04-05 03:23:00,39.7,30.4,30.03,NW,321,7.0,7.0,69,0.00,CLR,,0.00,0.0,WeatherDisplay:10.37,2013-04-05 08:23:00,
2013-04-05 03:28:00,39.9,30.9,30.03,NW,311,8.1,8.1,70,0.00,CLR,,0.00,0.0,WeatherDisplay:10.37,2013-04-05 08:28:00,
2013-04-05 03:33:00,39.7,30.7,30.03,NW,306,6.9,6.9,70,0.00,CLR,,0.00,0.0,WeatherDisplay:10.37,2013-04-05 08:33:00,
2013-04-05 03:38:00,39.2,30.9,30.04,NW,308,5.8,5.8,72,0.00,CLR,,0.00,0.0,WeatherDisplay:10.37,2013-04-05 08:38:00,
2013-04-05 03:43:00,39.0,31.1,30.04,WNW,302,5.8,5.8,73,0.00,CLR,,0.00,0.0,WeatherDisplay:10.37,2013-04-05 08:43:00,
2013-04-05 03:48:00,38.9,31.0,30.04,NW,323,6.9,6.9,73,0.00,CLR,,0.00,0.0,WeatherDisplay:10.37,2013-04-05 08:48:00,
2013-04-05 03:53:00,38.9,31.0,30.05,NW,316,6.0,6.0,73,0.00,CLR,,0.00,0.0,WeatherDisplay:10.37,2013-04-05 08:53:00,
2013-04-05 03:58:00,38.9,31.0,30.05,NW,316,5.0,5.0,73,0.00,CLR,,0.00,0.0,WeatherDisplay:10.37,2013-04-05 08:58:00,
2013-04-05 04:03:00,38.8,30.9,30.05,NW,304,6.9,6.9,73,0.00,CLR,,0.00,0.0,WeatherDisplay:10.37,2013-04-05 09:03:00,
2013-04-05 04:08:00,38.5,30.3,30.05,NW,317,8.1,8.1,72,0.00,CLR,,0.00,0.0,WeatherDisplay:10.37,2013-04-05 09:08:00,
2013-04-05 04:13:00,38.2,29.6,30.06,NNW,340,8.1,8.1,71,0.00,CLR,,0.00,0.0,WeatherDisplay:10.37,2013-04-05 09:13:00,
2013-04-05 04:18:00,37.9,29.3,30.06,NNW,333,9.2,9.2,71,0.00,CLR,,0.00,0.0,WeatherDisplay:10.37,2013-04-05 09:18:00,
2013-04-05 04:23:00,37.6,29.0,30.06,NNW,329,7.0,7.0,71,0.00,CLR,,0.00,0.0,WeatherDisplay:10.37,2013-04-05 09:23:00,
2013-04-05 04:28:00,37.3,29.1,30.06,NNW,329,6.9,6.9,72,0.00,CLR,,0.00,0.0,WeatherDisplay:10.37,2013-04-05 09:28:00,
2013-04-05 04:33:00,37.1,28.9,30.06,NW,320,6.0,6.0,72,0.00,CLR,,0.00,0.0,WeatherDisplay:10.37,2013-04-05 09:33:00,
2013-04-05 04:40:00,37.1,28.9,30.07,NW,321,8.0,8.0,72,0.00,CLR,,0.00,0.0,WeatherDisplay:10.37,2013-04-05 09:40:00,
2013-04-05 04:45:00,37.3,29.1,30.07,NNW,331,6.9,6.9,72,0.00,CLR,,0.00,0.0,WeatherDisplay:10.37,2013-04-05 09:45:00,
2013-04-05 04:50:00,37.2,28.7,30.07,NW,321,5.8,5.8,71,0.00,CLR,,0.00,0.0,WeatherDisplay:10.37,2013-04-05 09:50:00,
2013-04-05 04:55:00,37.1,28.6,30.07,NW,321,5.8,5.8,71,0.00,CLR,,0.00,0.0,WeatherDisplay:10.37,2013-04-05 09:55:00,
2013-04-05 05:01:00,36.9,28.4,30.07,NW,316,4.6,4.6,71,0.00,CLR,,0.00,0.0,WeatherDisplay:10.37,2013-04-05 10:01:00,
2013-04-05 05:06:00,36.6,28.4,30.07,NW,323,5.0,5.0,72,0.00,CLR,,0.00,0.0,WeatherDisplay:10.37,2013-04-05 10:06:00,
2013-04-05 05:11:00,36.5,28.3,30.08,NW,316,4.6,4.6,72,0.00,CLR,,0.00,0.0,WeatherDisplay:10.37,2013-04-05 10:11:00,
2013-04-05 05:16:00,36.2,28.0,30.08,NNW,337,7.0,7.0,72,0.00,CLR,,0.00,0.0,WeatherDisplay:10.37,2013-04-05 10:16:00,
2013-04-05 05:21:00,36.0,27.8,30.08,NNW,343,8.1,8.1,72,0.00,CLR,,0.00,0.0,WeatherDisplay:10.37,2013-04-05 10:21:00,
2013-04-05 05:26:00,35.5,27.4,30.09,NNW,332,6.9,6.9,72,0.00,CLR,,0.00,0.0,WeatherDisplay:10.37,2013-04-05 10:26:00,
2013-04-05 05:31:00,34.8,27.0,30.09,NNW,347,8.1,8.1,73,0.00,CLR,,0.00,0.0,WeatherDisplay:10.37,2013-04-05 10:31:00,
2013-04-05 05:36:00,34.7,27.3,30.09,North,349,8.1,8.1,74,0.00,CLR,,0.00,0.0,WeatherDisplay:10.37,2013-04-05 10:36:00,
2013-04-05 05:42:00,34.7,27.6,30.09,North,355,9.2,9.2,75,0.00,CLR,,0.00,0.0,WeatherDisplay:10.37,2013-04-05 10:42:00,
2013-04-05 05:47:00,34.4,27.3,30.10,North,355,6.9,6.9,75,0.00,CLR,,0.00,0.0,WeatherDisplay:10.37,2013-04-05 10:47:00,
2013-04-05 05:52:00,33.9,27.1,30.10,North,5,5.8,5.8,76,0.00,CLR,,0.00,0.0,WeatherDisplay:10.37,2013-04-05 10:52:00,
2013-04-05 05:57:00,33.8,28.0,30.10,North,355,5.8,5.8,79,0.00,CLR,,0.00,0.0,WeatherDisplay:10.37,2013-04-05 10:57:00,
2013-04-05 06:02:00,33.8,28.3,30.10,NNW,344,6.9,6.9,80,0.00,CLR,,0.00,0.0,WeatherDisplay:10.37,2013-04-05 11:02:00,
2013-04-05 06:07:00,33.8,28.9,30.11,NNW,344,6.9,6.9,82,0.00,CLR,,0.00,0.0,WeatherDisplay:10.37,2013-04-05 11:07:00,
2013-04-05 06:12:00,33.8,29.5,30.11,NNW,348,6.9,6.9,84,0.00,CLR,,0.00,0.0,WeatherDisplay:10.37,2013-04-05 11:12:00,
2013-04-05 06:17:00,34.1,30.1,30.11,North,355,10.4,10.4,85,0.00,CLR,,0.00,0.0,WeatherDisplay:10.37,2013-04-05 11:17:00,
2013-04-05 06:22:00,34.3,30.3,30.11,North,9,11.5,11.5,85,0.00,CLR,,0.00,0.0,WeatherDisplay:10.37,2013-04-05 11:22:00,
2013-04-05 06:27:00,34.3,30.3,30.12,North,355,10.4,10.4,85,0.00,CLR,,0.00,0.0,WeatherDisplay:10.37,2013-04-05 11:27:00,
2013-04-05 06:32:00,34.0,30.0,30.12,North,355,9.2,9.2,85,0.00,CLR,,0.00,5.0,WeatherDisplay:10.37,2013-04-05 11:32:00,
2013-04-05 06:37:00,33.7,30.0,30.12,North,5,9.2,9.2,86,0.00,CLR,,0.00,9.0,WeatherDisplay:10.37,2013-04-05 11:37:00,
2013-04-05 06:42:00,33.7,30.2,30.12,North,360,9.2,9.2,87,0.00,CLR,,0.00,12.0,WeatherDisplay:10.37,2013-04-05 11:42:00,
2013-04-05 06:47:00,34.0,30.5,30.12,North,355,9.2,9.2,87,0.00,CLR,,0.00,16.0,WeatherDisplay:10.37,2013-04-05 11:47:00,
2013-04-05 06:52:00,34.3,30.8,30.13,North,355,12.7,12.7,87,0.00,CLR,,0.00,21.0,WeatherDisplay:10.37,2013-04-05 11:52:00,
2013-04-05 06:57:00,34.6,30.8,30.13,North,351,11.5,11.5,86,0.00,CLR,,0.00,25.0,WeatherDisplay:10.37,2013-04-05 11:57:00,
2013-04-05 07:02:00,35.0,30.9,30.13,North,5,12.7,12.7,85,0.00,CLR,,0.00,33.0,WeatherDisplay:10.37,2013-04-05 12:02:00,
2013-04-05 07:07:00,35.3,30.9,30.13,NNE,13,12.7,12.7,84,0.00,CLR,,0.00,42.0,WeatherDisplay:10.37,2013-04-05 12:07:00,
2013-04-05 07:12:00,35.7,31.0,30.14,North,9,13.8,13.8,83,0.00,CLR,,0.00,56.0,WeatherDisplay:10.37,2013-04-05 12:12:00,
2013-04-05 07:17:00,36.0,31.0,30.14,North,5,12.7,12.7,82,0.00,CLR,,0.00,72.0,WeatherDisplay:10.37,2013-04-05 12:17:00,
2013-04-05 07:22:00,36.3,31.0,30.14,North,5,11.5,11.5,81,0.00,CLR,,0.00,88.0,WeatherDisplay:10.37,2013-04-05 12:22:00,
2013-04-05 07:27:00,36.6,31.0,30.14,North,11,15.0,15.0,80,0.00,CLR,,0.00,105.0,WeatherDisplay:10.37,2013-04-05 12:27:00,
2013-04-05 07:32:00,37.0,31.1,30.14,NNE,17,11.5,11.5,79,0.00,CLR,,0.00,125.0,WeatherDisplay:10.37,2013-04-05 12:32:00,
2013-04-05 07:37:00,37.4,30.8,30.14,NNE,17,17.3,17.3,77,0.00,CLR,,0.00,144.0,WeatherDisplay:10.37,2013-04-05 12:37:00,
2013-04-05 07:42:00,37.8,30.6,30.15,North,5,16.1,16.1,75,0.00,CLR,,0.00,163.0,WeatherDisplay:10.37,2013-04-05 12:42:00,
2013-04-05 07:48:00,38.3,30.4,30.15,NNE,23,18.4,18.4,73,0.00,CLR,,0.00,185.0,WeatherDisplay:10.37,2013-04-05 12:48:00,
2013-04-05 07:53:00,38.8,30.9,30.15,North,9,16.1,16.1,73,0.00,CLR,,0.00,206.0,WeatherDisplay:10.37,2013-04-05 12:53:00,
2013-04-05 07:58:00,39.2,30.6,30.15,NNE,19,17.3,17.3,71,0.00,CLR,,0.00,223.0,WeatherDisplay:10.37,2013-04-05 12:58:00,
2013-04-05 08:03:00,39.6,30.3,30.16,NNE,16,18.4,18.4,69,0.00,CLR,,0.00,244.0,WeatherDisplay:10.37,2013-04-05 13:03:00,
2013-04-05 08:08:00,40.0,29.9,30.16,NNE,24,19.6,19.6,67,0.00,CLR,,0.00,262.0,WeatherDisplay:10.37,2013-04-05 13:08:00,
2013-04-05 08:13:00,40.5,30.0,30.16,NNE,15,20.7,20.7,66,0.00,CLR,,0.00,281.0,WeatherDisplay:10.37,2013-04-05 13:13:00,
2013-04-05 08:18:00,40.8,29.2,30.16,NNE,16,21.0,21.0,63,0.00,CLR,,0.00,297.0,WeatherDisplay:10.37,2013-04-05 13:18:00,
2013-04-05 08:23:00,41.1,29.5,30.16,NNE,22,19.6,19.6,63,0.00,CLR,,0.00,315.0,WeatherDisplay:10.37,2013-04-05 13:23:00,
2013-04-05 08:28:00,41.8,29.7,30.16,NE,35,19.6,19.6,62,0.00,CLR,,0.00,329.0,WeatherDisplay:10.37,2013-04-05 13:28:00,
2013-04-05 08:33:00,42.1,29.6,30.16,NE,42,19.6,19.6,61,0.00,CLR,,0.00,348.0,WeatherDisplay:10.37,2013-04-05 13:33:00,
2013-04-05 08:38:00,42.6,29.3,30.16,NNE,18,20.7,20.7,59,0.00,CLR,,0.00,369.0,WeatherDisplay:10.37,2013-04-05 13:38:00,
2013-04-05 08:43:00,42.7,28.9,30.16,NE,37,20.0,20.0,58,0.00,CLR,,0.00,385.0,WeatherDisplay:10.37,2013-04-05 13:43:00,
2013-04-05 08:48:00,43.1,29.3,30.17,NNE,28,19.6,19.6,58,0.00,CLR,,0.00,401.0,WeatherDisplay:10.37,2013-04-05 13:48:00,
2013-04-05 08:53:00,43.2,29.4,30.17,NE,36,22.0,22.0,58,0.00,CLR,,0.00,422.0,WeatherDisplay:10.37,2013-04-05 13:53:00,
2013-04-05 08:58:00,43.4,28.7,30.17,NE,44,20.7,20.7,56,0.00,CLR,,0.00,434.0,WeatherDisplay:10.37,2013-04-05 13:58:00,
2013-04-05 09:03:00,43.8,29.1,30.17,NNE,22,18.0,18.0,56,0.00,CLR,,0.00,450.0,WeatherDisplay:10.37,2013-04-05 14:03:00,
2013-04-05 09:08:00,44.0,28.4,30.17,NE,41,20.7,20.7,54,0.00,CLR,,0.00,466.0,WeatherDisplay:10.37,2013-04-05 14:08:00,
2013-04-05 09:13:00,44.3,28.7,30.17,NE,36,20.7,20.7,54,0.00,CLR,,0.00,483.0,WeatherDisplay:10.37,2013-04-05 14:13:00,
2013-04-05 09:19:00,44.9,28.8,30.17,NE,35,20.7,20.7,53,0.00,CLR,,0.00,496.0,WeatherDisplay:10.37,2013-04-05 14:19:00,
2013-04-05 09:24:00,45.2,28.6,30.17,NE,39,19.0,19.0,52,0.00,CLR,,0.00,512.0,WeatherDisplay:10.37,2013-04-05 14:24:00,
2013-04-05 09:29:00,45.6,28.5,30.17,NE,42,20.7,20.7,51,0.00,CLR,,0.00,529.0,WeatherDisplay:10.37,2013-04-05 14:29:00,
2013-04-05 09:34:00,45.8,28.7,30.18,NE,43,20.7,20.7,51,0.00,CLR,,0.00,545.0,WeatherDisplay:10.37,2013-04-05 14:34:00,
2013-04-05 09:40:00,46.0,29.3,30.18,NE,37,19.6,19.6,52,0.00,CLR,,0.00,563.0,WeatherDisplay:10.37,2013-04-05 14:40:00,
2013-04-05 09:45:00,46.2,28.6,30.18,NE,37,19.6,19.6,50,0.00,CLR,,0.00,573.0,WeatherDisplay:10.37,2013-04-05 14:45:00,
2013-04-05 09:50:00,46.6,28.4,30.18,NNE,30,19.6,19.6,49,0.00,CLR,,0.00,587.0,WeatherDisplay:10.37,2013-04-05 14:50:00,
2013-04-05 09:55:00,46.5,28.8,30.18,NNE,26,19.0,19.0,50,0.00,CLR,,0.00,603.0,WeatherDisplay:10.37,2013-04-05 14:55:00,
2013-04-05 10:00:00,46.7,28.5,30.18,NNE,28,17.3,17.3,49,0.00,CLR,,0.00,619.0,WeatherDisplay:10.37,2013-04-05 15:00:00,
2013-04-05 10:05:00,47.1,28.9,30.18,NE,34,19.6,19.6,49,0.00,CLR,,0.00,628.0,WeatherDisplay:10.37,2013-04-05 15:05:00,
2013-04-05 10:10:00,47.4,28.7,30.19,NNE,13,19.6,19.6,48,0.00,CLR,,0.00,642.0,WeatherDisplay:10.37,2013-04-05 15:10:00,
2013-04-05 10:15:00,47.2,28.0,30.19,NE,37,17.3,17.3,47,0.00,CLR,,0.00,656.0,WeatherDisplay:10.37,2013-04-05 15:15:00,
2013-04-05 10:21:00,47.5,28.3,30.19,NE,40,16.1,16.1,47,0.00,CLR,,0.00,670.0,WeatherDisplay:10.37,2013-04-05 15:21:00,
2013-04-05 10:26:00,47.6,27.8,30.19,NNE,19,18.4,18.4,46,0.00,CLR,,0.00,682.0,WeatherDisplay:10.37,2013-04-05 15:26:00,
2013-04-05 10:31:00,47.7,28.4,30.19,NNE,28,16.1,16.1,47,0.00,CLR,,0.00,691.0,WeatherDisplay:10.37,2013-04-05 15:31:00,
2013-04-05 10:36:00,48.2,28.4,30.19,NE,34,15.0,15.0,46,0.00,CLR,,0.00,705.0,WeatherDisplay:10.37,2013-04-05 15:36:00,
2013-04-05 10:41:00,48.6,28.2,30.19,NNE,13,18.4,18.4,45,0.00,CLR,,0.00,710.0,WeatherDisplay:10.37,2013-04-05 15:41:00,
2013-04-05 10:46:00,48.5,28.1,30.19,NE,46,17.3,17.3,45,0.00,CLR,,0.00,724.0,WeatherDisplay:10.37,2013-04-05 15:46:00,
2013-04-05 10:51:00,48.7,27.7,30.19,NE,36,16.1,16.1,44,0.00,CLR,,0.00,733.0,WeatherDisplay:10.37,2013-04-05 15:51:00,
2013-04-05 10:56:00,48.8,27.3,30.19,NNE,19,18.4,18.4,43,0.00,CLR,,0.00,745.0,WeatherDisplay:10.37,2013-04-05 15:56:00,
2013-04-05 11:01:00,48.5,27.6,30.19,NNE,33,20.7,20.7,44,0.00,CLR,,0.00,752.0,WeatherDisplay:10.37,2013-04-05 16:01:00,
2013-04-05 11:06:00,48.7,27.7,30.19,NNE,15,16.1,16.1,44,0.00,CLR,,0.00,765.0,WeatherDisplay:10.37,2013-04-05 16:06:00,
2013-04-05 11:11:00,49.0,26.9,30.20,NNE,13,16.1,16.1,42,0.00,CLR,,0.00,772.0,WeatherDisplay:10.37,2013-04-05 16:11:00,
2013-04-05 11:17:00,49.3,28.3,30.20,ENE,58,17.3,17.3,44,0.00,CLR,,0.00,780.0,WeatherDisplay:10.37,2013-04-05 16:17:00,
2013-04-05 11:22:00,49.3,27.7,30.20,North,5,19.0,19.0,43,0.00,CLR,,0.00,789.0,WeatherDisplay:10.37,2013-04-05 16:22:00,
2013-04-05 11:27:00,49.1,27.0,30.20,NNE,28,16.1,16.1,42,0.00,CLR,,0.00,800.0,WeatherDisplay:10.37,2013-04-05 16:27:00,
2013-04-05 11:32:00,48.8,26.1,30.21,NNE,27,18.4,18.4,41,0.00,CLR,,0.00,807.0,WeatherDisplay:10.37,2013-04-05 16:32:00,
2013-04-05 11:37:00,48.9,27.4,30.21,NE,34,16.1,16.1,43,0.00,CLR,,0.00,816.0,WeatherDisplay:10.37,2013-04-05 16:37:00,
2013-04-05 11:42:00,49.3,25.4,30.20,NNE,19,17.3,17.3,39,0.00,CLR,,0.00,821.0,WeatherDisplay:10.37,2013-04-05 16:42:00,
2013-04-05 11:47:00,49.6,27.4,30.20,NE,34,16.1,16.1,42,0.00,CLR,,0.00,828.0,WeatherDisplay:10.37,2013-04-05 16:47:00,
2013-04-05 11:52:00,50.0,27.2,30.20,NNE,32,15.0,15.0,41,0.00,CLR,,0.00,833.0,WeatherDisplay:10.37,2013-04-05 16:52:00,
2013-04-05 11:57:00,50.5,26.4,30.20,NNE,20,15.0,15.0,39,0.00,CLR,,0.00,835.0,WeatherDisplay:10.37,2013-04-05 16:57:00,
2013-04-05 12:02:00,49.8,26.4,30.21,NNE,13,15.0,15.0,40,0.00,CLR,,0.00,842.0,WeatherDisplay:10.37,2013-04-05 17:02:00,
2013-04-05 12:07:00,50.0,26.0,30.20,NE,38,17.3,17.3,39,0.00,CLR,,0.00,847.0,WeatherDisplay:10.37,2013-04-05 17:07:00,
2013-04-05 12:12:00,49.8,24.5,30.20,NNE,32,16.1,16.1,37,0.00,CLR,,0.00,851.0,WeatherDisplay:10.37,2013-04-05 17:12:00,
2013-04-05 12:17:00,49.9,25.3,30.20,NNE,30,15.0,15.0,38,0.00,CLR,,0.00,854.0,WeatherDisplay:10.37,2013-04-05 17:17:00,
2013-04-05 12:23:00,49.9,24.6,30.20,NNE,12,15.0,15.0,37,0.00,CLR,,0.00,860.0,WeatherDisplay:10.37,2013-04-05 17:23:00,
2013-04-05 12:28:00,50.1,24.8,30.20,NE,36,24.2,24.2,37,0.00,CLR,,0.00,861.0,WeatherDisplay:10.37,2013-04-05 17:28:00,
2013-04-05 12:33:00,49.9,24.6,30.20,NNE,26,15.0,15.0,37,0.00,CLR,,0.00,861.0,WeatherDisplay:10.37,2013-04-05 17:33:00,
2013-04-05 12:38:00,49.8,25.2,30.20,NE,34,15.0,15.0,38,0.00,CLR,,0.00,863.0,WeatherDisplay:10.37,2013-04-05 17:38:00,
2013-04-05 12:43:00,50.0,24.1,30.20,NNE,19,11.5,11.5,36,0.00,CLR,,0.00,863.0,WeatherDisplay:10.37,2013-04-05 17:43:00,
2013-04-05 12:48:00,49.9,22.6,30.20,NE,53,16.1,16.1,34,0.00,CLR,,0.00,865.0,WeatherDisplay:10.37,2013-04-05 17:48:00,
2013-04-05 12:53:00,49.5,23.6,30.19,NE,40,18.4,18.4,36,0.00,CLR,,0.00,865.0,WeatherDisplay:10.37,2013-04-05 17:53:00,
2013-04-05 12:58:00,49.7,23.8,30.19,NNE,21,18.4,18.4,36,0.00,CLR,,0.00,868.0,WeatherDisplay:10.37,2013-04-05 17:58:00,
2013-04-05 13:03:00,49.4,23.5,30.19,NNE,14,13.8,13.8,36,0.00,CLR,,0.00,872.0,WeatherDisplay:10.37,2013-04-05 18:03:00,
2013-04-05 13:08:00,50.0,23.4,30.18,NNE,32,19.6,19.6,35,0.00,CLR,,0.00,777.0,WeatherDisplay:10.37,2013-04-05 18:08:00,
2013-04-05 13:13:00,50.0,22.7,30.18,NNE,29,17.3,17.3,34,0.00,CLR,,0.00,763.0,WeatherDisplay:10.37,2013-04-05 18:13:00,
2013-04-05 13:18:00,49.8,23.2,30.18,NNE,22,16.1,16.1,35,0.00,CLR,,0.00,833.0,WeatherDisplay:10.37,2013-04-05 18:18:00,
2013-04-05 13:23:00,49.8,23.2,30.18,NE,52,12.7,12.7,35,0.00,CLR,,0.00,884.0,WeatherDisplay:10.37,2013-04-05 18:23:00,
2013-04-05 13:28:00,49.9,21.2,30.18,NNE,24,16.1,16.1,32,0.00,CLR,,0.00,809.0,WeatherDisplay:10.37,2013-04-05 18:28:00,
2013-04-05 13:33:00,49.9,21.9,30.18,NNE,24,11.5,11.5,33,0.00,CLR,,0.00,837.0,WeatherDisplay:10.37,2013-04-05 18:33:00,
2013-04-05 13:38:00,49.8,20.3,30.18,NNE,28,12.7,12.7,31,0.00,CLR,,0.00,761.0,WeatherDisplay:10.37,2013-04-05 18:38:00,
2013-04-05 13:43:00,49.8,20.3,30.17,NE,34,18.4,18.4,31,0.00,CLR,,0.00,851.0,WeatherDisplay:10.37,2013-04-05 18:43:00,
2013-04-05 13:48:00,50.0,22.0,30.17,NNE,28,15.0,15.0,33,0.00,CLR,,0.00,751.0,WeatherDisplay:10.37,2013-04-05 18:48:00,
2013-04-05 13:53:00,50.3,18.4,30.17,NE,53,15.0,15.0,28,0.00,CLR,,0.00,828.0,WeatherDisplay:10.37,2013-04-05 18:53:00,
2013-04-05 13:59:00,50.5,21.7,30.17,NNE,25,13.8,13.8,32,0.00,CLR,,0.00,844.0,WeatherDisplay:10.37,2013-04-05 18:59:00,
2013-04-05 14:04:00,50.7,21.9,30.17,NNE,31,13.0,13.0,32,0.00,CLR,,0.00,824.0,WeatherDisplay:10.37,2013-04-05 19:04:00,
2013-04-05 14:09:00,50.6,23.2,30.17,NNE,31,17.3,17.3,34,0.00,CLR,,0.00,802.0,WeatherDisplay:10.37,2013-04-05 19:09:00,
2013-04-05 14:14:00,50.9,22.8,30.17,ENE,67,16.1,16.1,33,0.00,CLR,,0.00,807.0,WeatherDisplay:10.37,2013-04-05 19:14:00,
2013-04-05 14:19:00,51.1,24.4,30.17,NNE,13,15.0,15.0,35,0.00,CLR,,0.00,802.0,WeatherDisplay:10.37,2013-04-05 19:19:00,
2013-04-05 14:24:00,51.0,23.6,30.17,NE,35,17.3,17.3,34,0.00,CLR,,0.00,805.0,WeatherDisplay:10.37,2013-04-05 19:24:00,
2013-04-05 14:30:00,50.7,22.6,30.16,NE,38,17.0,17.0,33,0.00,CLR,,0.00,800.0,WeatherDisplay:10.37,2013-04-05 19:30:00,
2013-04-05 14:35:00,50.3,23.0,30.16,NNE,25,14.0,14.0,34,0.00,CLR,,0.00,788.0,WeatherDisplay:10.37,2013-04-05 19:35:00,
2013-04-05 14:40:00,50.5,20.9,30.16,NE,37,12.7,12.7,31,0.00,CLR,,0.00,777.0,WeatherDisplay:10.37,2013-04-05 19:40:00,
2013-04-05 14:45:00,50.5,23.1,30.16,NNE,28,15.0,15.0,34,0.00,CLR,,0.00,759.0,WeatherDisplay:10.37,2013-04-05 19:45:00,
2013-04-05 14:50:00,50.5,21.7,30.15,NNE,26,17.3,17.3,32,0.00,CLR,,0.00,759.0,WeatherDisplay:10.37,2013-04-05 19:50:00,
2013-04-05 14:55:00,50.3,23.0,30.15,ENE,59,16.0,16.0,34,0.00,CLR,,0.00,749.0,WeatherDisplay:10.37,2013-04-05 19:55:00,
2013-04-05 15:01:00,50.1,21.3,30.15,NNE,30,17.3,17.3,32,0.00,CLR,,0.00,740.0,WeatherDisplay:10.37,2013-04-05 20:01:00,
2013-04-05 15:07:00,49.6,20.9,30.15,NNE,20,19.6,19.6,32,0.00,CLR,,0.00,724.0,WeatherDisplay:10.37,2013-04-05 20:07:00,
2013-04-05 15:12:00,50.0,22.7,30.15,NE,46,15.0,15.0,34,0.00,CLR,,0.00,705.0,WeatherDisplay:10.37,2013-04-05 20:12:00,
2013-04-05 15:17:00,49.7,21.0,30.15,NNE,19,16.1,16.1,32,0.00,CLR,,0.00,671.0,WeatherDisplay:10.37,2013-04-05 20:17:00,
2013-04-05 15:22:00,49.6,21.6,30.15,NE,40,17.3,17.3,33,0.00,CLR,,0.00,666.0,WeatherDisplay:10.37,2013-04-05 20:22:00,
2013-04-05 15:27:00,49.4,21.5,30.15,NNE,30,13.0,13.0,33,0.00,CLR,,0.00,657.0,WeatherDisplay:10.37,2013-04-05 20:27:00,
2013-04-05 15:32:00,49.4,22.2,30.15,NNE,26,19.6,19.6,34,0.00,CLR,,0.00,584.0,WeatherDisplay:10.37,2013-04-05 20:32:00,
2013-04-05 15:37:00,49.4,21.5,30.15,NNE,17,15.0,15.0,33,0.00,CLR,,0.00,619.0,WeatherDisplay:10.37,2013-04-05 20:37:00,
2013-04-05 15:42:00,49.4,20.0,30.15,NNE,15,17.3,17.3,31,0.00,CLR,,0.00,649.0,WeatherDisplay:10.37,2013-04-05 20:42:00,
2013-04-05 15:47:00,49.1,21.2,30.15,North,5,13.8,13.8,33,0.00,CLR,,0.00,594.0,WeatherDisplay:10.37,2013-04-05 20:47:00,
2013-04-05 15:53:00,49.4,21.5,30.15,NNE,30,18.4,18.4,33,0.00,CLR,,0.00,615.0,WeatherDisplay:10.37,2013-04-05 20:53:00,
2013-04-05 15:58:00,49.3,19.9,30.15,NNE,25,15.0,15.0,31,0.00,CLR,,0.00,608.0,WeatherDisplay:10.37,2013-04-05 20:58:00,
2013-04-05 16:03:00,48.8,17.9,30.15,North,355,16.1,16.1,29,0.00,CLR,,0.00,311.0,WeatherDisplay:10.37,2013-04-05 21:03:00,
2013-04-05 16:08:00,47.8,18.6,30.15,North,5,16.0,16.0,31,0.00,CLR,,0.00,364.0,WeatherDisplay:10.37,2013-04-05 21:08:00,
2013-04-05 16:13:00,47.8,20.1,30.16,North,5,12.7,12.7,33,0.00,CLR,,0.00,422.0,WeatherDisplay:10.37,2013-04-05 21:13:00,
2013-04-05 16:18:00,47.8,19.3,30.16,NE,40,13.8,13.8,32,0.00,CLR,,0.00,445.0,WeatherDisplay:10.37,2013-04-05 21:18:00,
2013-04-05 16:23:00,48.0,19.5,30.16,NNE,24,14.0,14.0,32,0.00,CLR,,0.00,585.0,WeatherDisplay:10.37,2013-04-05 21:23:00,
2013-04-05 16:29:00,48.4,19.9,30.17,NE,48,11.5,11.5,32,0.00,CLR,,0.00,506.0,WeatherDisplay:10.37,2013-04-05 21:29:00,
2013-04-05 16:34:00,48.5,21.4,30.17,North,355,12.0,12.0,34,0.00,CLR,,0.00,503.0,WeatherDisplay:10.37,2013-04-05 21:34:00,
2013-04-05 16:39:00,48.6,20.8,30.16,North,360,15.0,15.0,33,0.00,CLR,,0.00,515.0,WeatherDisplay:10.37,2013-04-05 21:39:00,
2013-04-05 16:44:00,48.1,21.7,30.16,NNE,18,13.0,13.0,35,0.00,CLR,,0.00,466.0,WeatherDisplay:10.37,2013-04-05 21:44:00,
2013-04-05 16:49:00,47.3,21.7,30.16,NNE,17,11.0,11.0,36,0.00,CLR,,0.00,309.0,WeatherDisplay:10.37,2013-04-05 21:49:00,
2013-04-05 16:54:00,47.2,21.6,30.16,NE,49,16.1,16.1,36,0.00,CLR,,0.00,383.0,WeatherDisplay:10.37,2013-04-05 21:54:00,
2013-04-05 16:59:00,47.3,22.3,30.16,North,5,11.5,11.5,37,0.00,CLR,,0.00,373.0,WeatherDisplay:10.37,2013-04-05 21:59:00,
2013-04-05 17:05:00,47.4,21.1,30.16,NNE,30,13.8,13.8,35,0.00,CLR,,0.00,345.0,WeatherDisplay:10.37,2013-04-05 22:05:00,
2013-04-05 17:10:00,47.1,20.8,30.17,NNE,19,12.7,12.7,35,0.00,CLR,,0.00,418.0,WeatherDisplay:10.37,2013-04-05 22:10:00,
2013-04-05 17:15:00,47.3,21.0,30.17,NNE,22,11.5,11.5,35,0.00,CLR,,0.00,290.0,WeatherDisplay:10.37,2013-04-05 22:15:00,
2013-04-05 17:20:00,46.8,19.9,30.17,NNE,25,14.0,14.0,34,0.00,CLR,,0.00,237.0,WeatherDisplay:10.37,2013-04-05 22:20:00,
2013-04-05 17:25:00,46.1,19.9,30.17,NNE,13,11.5,11.5,35,0.00,CLR,,0.00,253.0,WeatherDisplay:10.37,2013-04-05 22:25:00,
2013-04-05 17:30:00,45.9,21.1,30.18,NNE,18,11.5,11.5,37,0.00,CLR,,0.00,283.0,WeatherDisplay:10.37,2013-04-05 22:30:00,
2013-04-05 17:35:00,46.0,21.8,30.18,NNE,28,12.7,12.7,38,0.00,CLR,,0.00,260.0,WeatherDisplay:10.37,2013-04-05 22:35:00,
2013-04-05 17:40:00,45.7,21.5,30.17,North,355,11.5,11.7,38,0.00,CLR,,0.00,264.0,WeatherDisplay:10.37,2013-04-05 22:40:00,
2013-04-05 17:45:00,45.4,21.9,30.17,NE,42,12.7,12.7,39,0.00,CLR,,0.00,272.0,WeatherDisplay:10.37,2013-04-05 22:45:00,
2013-04-05 17:50:00,45.2,21.7,30.17,NNE,28,14.0,14.0,39,0.00,CLR,,0.00,176.0,WeatherDisplay:10.37,2013-04-05 22:50:00,
2013-04-05 17:55:00,44.6,21.1,30.17,NNE,15,12.7,12.7,39,0.00,CLR,,0.00,105.0,WeatherDisplay:10.37,2013-04-05 22:55:00,
2013-04-05 18:00:00,43.8,21.6,30.17,NNE,24,11.5,11.5,41,0.00,CLR,,0.00,160.0,WeatherDisplay:10.37,2013-04-05 23:00:00,
2013-04-05 18:05:00,43.4,22.4,30.18,NE,40,13.8,13.8,43,0.00,CLR,,0.00,118.0,WeatherDisplay:10.37,2013-04-05 23:05:00,
2013-04-05 18:10:00,43.3,22.8,30.17,NNE,28,14.0,14.0,44,0.00,CLR,,0.00,118.0,WeatherDisplay:10.37,2013-04-05 23:10:00,
2013-04-05 18:15:00,43.0,22.5,30.17,NE,43,14.0,14.0,44,0.00,CLR,,0.00,74.0,WeatherDisplay:10.37,2013-04-05 23:15:00,
2013-04-05 18:20:00,42.5,21.5,30.18,NNE,24,15.0,15.0,43,0.00,CLR,,0.00,65.0,WeatherDisplay:10.37,2013-04-05 23:20:00,
2013-04-05 18:25:00,41.9,21.5,30.18,NE,35,13.0,13.0,44,0.00,CLR,,0.00,54.0,WeatherDisplay:10.37,2013-04-05 23:25:00,
2013-04-05 18:30:00,41.5,22.7,30.18,NNE,32,13.8,13.8,47,0.00,CLR,,0.00,46.0,WeatherDisplay:10.37,2013-04-05 23:30:00,
2013-04-05 18:35:00,41.1,22.4,30.18,NE,47,12.7,12.7,47,0.00,CLR,,0.00,33.0,WeatherDisplay:10.37,2013-04-05 23:35:00,
2013-04-05 18:40:00,40.8,21.6,30.18,NE,35,12.7,12.7,46,0.00,CLR,,0.00,25.0,WeatherDisplay:10.37,2013-04-05 23:40:00,
2013-04-05 18:45:00,40.6,22.4,30.19,NNE,31,12.7,12.7,48,0.00,CLR,,0.00,18.0,WeatherDisplay:10.37,2013-04-05 23:45:00,
2013-04-05 18:50:00,40.4,22.7,30.18,NNE,22,11.5,11.5,49,0.00,CLR,,0.00,18.0,WeatherDisplay:10.37,2013-04-05 23:50:00,
2013-04-05 18:56:00,40.0,21.9,30.18,NE,36,13.8,13.8,48,0.00,CLR,,0.00,9.0,WeatherDisplay:10.37,2013-04-05 23:56:00,
2013-04-05 19:01:00,39.7,22.6,30.18,NE,34,15.0,15.0,50,0.00,CLR,,0.00,5.0,WeatherDisplay:10.37,2013-04-06 00:01:00,
2013-04-05 19:06:00,39.3,22.7,30.18,NE,38,13.8,13.8,51,0.00,CLR,,0.00,0.0,WeatherDisplay:10.37,2013-04-06 00:06:00,
2013-04-05 19:11:00,38.9,22.8,30.18,NE,38,15.0,15.0,52,0.00,CLR,,0.00,0.0,WeatherDisplay:10.37,2013-04-06 00:11:00,
2013-04-05 19:16:00,38.6,22.5,30.19,NNE,30,15.0,15.0,52,0.00,CLR,,0.00,0.0,WeatherDisplay:10.37,2013-04-06 00:16:00,
2013-04-05 19:21:00,38.3,22.6,30.19,NE,38,11.5,11.5,53,0.00,CLR,,0.00,0.0,WeatherDisplay:10.37,2013-04-06 00:21:00,
2013-04-05 19:26:00,38.0,22.8,30.18,NE,40,15.0,15.0,54,0.00,CLR,,0.00,0.0,WeatherDisplay:10.37,2013-04-06 00:26:00,
2013-04-05 19:31:00,37.9,23.2,30.18,NNE,32,12.7,12.7,55,0.00,CLR,,0.00,0.0,WeatherDisplay:10.37,2013-04-06 00:31:00,
2013-04-05 19:36:00,37.7,23.4,30.18,NNE,24,11.5,11.5,56,0.00,SCT,,0.00,0.0,WeatherDisplay:10.37,2013-04-06 00:36:00,
2013-04-05 19:42:00,37.4,23.1,30.18,NE,36,13.0,13.0,56,0.00,SCT,,0.00,0.0,WeatherDisplay:10.37,2013-04-06 00:42:00,
2013-04-05 19:47:00,37.2,22.9,30.18,NNE,24,11.5,11.5,56,0.00,BKN,,0.00,0.0,WeatherDisplay:10.37,2013-04-06 00:47:00,
2013-04-05 19:52:00,37.1,23.3,30.18,NE,36,11.5,11.5,57,0.00,BKN,,0.00,0.0,WeatherDisplay:10.37,2013-04-06 00:52:00,
2013-04-05 19:57:00,37.0,23.6,30.19,NE,46,11.5,11.5,58,0.00,BKN,,0.00,0.0,WeatherDisplay:10.37,2013-04-06 00:57:00,
2013-04-05 20:02:00,36.9,23.9,30.19,NE,41,6.9,6.9,59,0.00,BKN,,0.00,0.0,WeatherDisplay:10.37,2013-04-06 01:02:00,
2013-04-05 20:07:00,36.9,23.9,30.20,NNE,19,7.0,7.0,59,0.00,BKN,,0.00,0.0,WeatherDisplay:10.37,2013-04-06 01:07:00,
2013-04-05 20:12:00,36.7,24.1,30.19,ENE,58,10.4,10.4,60,0.00,BKN,,0.00,0.0,WeatherDisplay:10.37,2013-04-06 01:12:00,
2013-04-05 20:17:00,36.6,24.0,30.19,NE,46,10.4,10.4,60,0.00,BKN,,0.00,0.0,WeatherDisplay:10.37,2013-04-06 01:17:00,
2013-04-05 20:22:00,36.4,24.6,30.20,NE,55,10.4,10.4,62,0.00,BKN,,0.00,0.0,WeatherDisplay:10.37,2013-04-06 01:22:00,
2013-04-05 20:28:00,36.2,24.4,30.20,NE,51,11.5,11.5,62,0.00,BKN,,0.00,0.0,WeatherDisplay:10.37,2013-04-06 01:28:00,
2013-04-05 20:33:00,36.0,24.6,30.20,NE,47,9.2,9.2,63,0.00,BKN,,0.00,0.0,WeatherDisplay:10.37,2013-04-06 01:33:00,
2013-04-05 20:38:00,35.7,24.3,30.20,NNE,28,9.2,9.2,63,0.00,BKN,,0.00,0.0,WeatherDisplay:10.37,2013-04-06 01:38:00,
2013-04-05 20:43:00,35.4,24.0,30.20,ENE,57,11.5,11.5,63,0.00,BKN,,0.00,0.0,WeatherDisplay:10.37,2013-04-06 01:43:00,
2013-04-05 20:48:00,35.2,24.2,30.20,ENE,60,13.0,13.0,64,0.00,SCT,,0.00,0.0,WeatherDisplay:10.37,2013-04-06 01:48:00,
2013-04-05 20:53:00,35.0,24.0,30.20,NE,44,10.4,10.4,64,0.00,SCT,,0.00,0.0,WeatherDisplay:10.37,2013-04-06 01:53:00,
2013-04-05 20:58:00,34.8,24.2,30.20,NE,38,12.7,12.7,65,0.00,SCT,,0.00,0.0,WeatherDisplay:10.37,2013-04-06 01:58:00,
2013-04-05 21:03:00,34.6,24.0,30.20,NE,53,12.0,12.0,65,0.00,SCT,,0.00,0.0,WeatherDisplay:10.37,2013-04-06 02:03:00,
2013-04-05 21:08:00,34.5,23.6,30.20,NE,53,12.7,12.7,64,0.00,SCT,,0.00,0.0,WeatherDisplay:10.37,2013-04-06 02:08:00,
2013-04-05 21:13:00,34.4,23.8,30.20,ENE,70,11.5,11.5,65,0.00,SCT,,0.00,0.0,WeatherDisplay:10.37,2013-04-06 02:13:00,
2013-04-05 21:18:00,34.4,23.8,30.20,NE,49,11.5,11.5,65,0.00,SCT,,0.00,0.0,WeatherDisplay:10.37,2013-04-06 02:18:00,
2013-04-05 21:23:00,34.2,24.0,30.19,ENE,61,8.1,8.1,66,0.00,SCT,,0.00,0.0,WeatherDisplay:10.37,2013-04-06 02:23:00,
2013-04-05 21:28:00,34.1,24.3,30.20,ENE,60,3.5,3.5,67,0.00,SCT,,0.00,0.0,WeatherDisplay:10.37,2013-04-06 02:28:00,
2013-04-05 21:33:00,33.9,24.4,30.19,ENE,69,6.9,6.9,68,0.00,BKN,,0.00,0.0,WeatherDisplay:10.37,2013-04-06 02:33:00,
2013-04-05 21:38:00,33.9,24.8,30.19,ENE,61,7.0,7.0,69,0.00,BKN,,0.00,0.0,WeatherDisplay:10.37,2013-04-06 02:38:00,
2013-04-05 21:43:00,34.1,25.0,30.19,ENE,78,9.2,9.2,69,0.00,BKN,,0.00,0.0,WeatherDisplay:10.37,2013-04-06 02:43:00,
2013-04-05 21:48:00,34.2,25.4,30.19,East,82,8.1,8.1,70,0.00,BKN,,0.00,0.0,WeatherDisplay:10.37,2013-04-06 02:48:00,
2013-04-05 21:53:00,34.3,25.5,30.18,East,81,8.1,8.1,70,0.00,BKN,,0.00,0.0,WeatherDisplay:10.37,2013-04-06 02:53:00,
2013-04-05 21:58:00,34.4,25.6,30.18,ENE,74,10.4,10.4,70,0.00,BKN,,0.00,0.0,WeatherDisplay:10.37,2013-04-06 02:58:00,
2013-04-05 22:03:00,34.4,26.0,30.17,East,82,10.4,10.4,71,0.00,OVC,,0.00,0.0,WeatherDisplay:10.37,2013-04-06 03:03:00,
2013-04-05 22:08:00,34.4,26.0,30.17,ENE,77,12.0,12.0,71,0.00,OVC,,0.00,0.0,WeatherDisplay:10.37,2013-04-06 03:08:00,
2013-04-05 22:13:00,34.4,25.6,30.17,ENE,63,11.5,11.5,70,0.00,OVC,,0.00,0.0,WeatherDisplay:10.37,2013-04-06 03:13:00,
2013-04-05 22:18:00,34.4,25.6,30.17,ENE,78,11.5,11.5,70,0.00,OVC,,0.00,0.0,WeatherDisplay:10.37,2013-04-06 03:18:00,
2013-04-05 22:23:00,34.4,25.6,30.16,East,82,10.4,10.4,70,0.00,OVC,,0.00,0.0,WeatherDisplay:10.37,2013-04-06 03:23:00,
2013-04-05 22:29:00,34.4,25.3,30.15,East,82,9.2,9.2,69,0.00,OVC,,0.00,0.0,WeatherDisplay:10.37,2013-04-06 03:29:00,
2013-04-05 22:34:00,34.4,25.3,30.15,East,91,10.0,10.0,69,0.00,BKN,,0.00,0.0,WeatherDisplay:10.37,2013-04-06 03:34:00,
2013-04-05 22:39:00,34.4,25.3,30.15,East,96,8.1,8.1,69,0.00,BKN,,0.00,0.0,WeatherDisplay:10.37,2013-04-06 03:39:00,
2013-04-05 22:44:00,34.5,25.4,30.14,East,97,12.7,12.7,69,0.00,BKN,,0.00,0.0,WeatherDisplay:10.37,2013-04-06 03:44:00,
2013-04-05 22:49:00,34.6,25.5,30.14,ESE,105,12.7,12.7,69,0.00,BKN,,0.00,0.0,WeatherDisplay:10.37,2013-04-06 03:49:00,
2013-04-05 22:54:00,34.6,25.5,30.14,East,92,11.5,11.5,69,0.00,BKN,,0.00,0.0,WeatherDisplay:10.37,2013-04-06 03:54:00,
2013-04-05 22:59:00,34.6,25.5,30.14,East,92,13.8,13.8,69,0.00,BKN,,0.00,0.0,WeatherDisplay:10.37,2013-04-06 03:59:00,
2013-04-05 23:00:00,34.6,25.5,30.14,East,84,13.8,13.8,69,0.00,BKN,,0.00,0.0,WeatherDisplay:10.37,2013-04-06 04:00:00,
2013-04-05 23:05:00,34.6,25.8,30.14,ENE,77,10.4,10.4,70,0.00,OVC,,0.00,0.0,WeatherDisplay:10.37,2013-04-06 04:05:00,
2013-04-05 23:10:00,34.6,26.2,30.14,East,80,13.8,13.8,71,0.00,OVC,,0.00,0.0,WeatherDisplay:10.37,2013-04-06 04:10:00,
2013-04-05 23:15:00,34.5,26.1,30.14,East,87,15.0,15.0,71,0.00,OVC,,0.00,0.0,WeatherDisplay:10.37,2013-04-06 04:15:00,
2013-04-05 23:21:00,34.6,26.2,30.16,ENE,70,10.4,10.4,71,0.00,OVC,,0.00,0.0,WeatherDisplay:10.37,2013-04-06 04:21:00,
2013-04-05 23:26:00,34.5,26.1,30.17,NE,54,9.2,9.2,71,0.00,OVC,,0.00,0.0,WeatherDisplay:10.37,2013-04-06 04:26:00,
2013-04-05 23:32:00,34.4,26.0,30.16,ENE,62,9.2,9.2,71,0.00,BKN,,0.00,0.0,WeatherDisplay:10.37,2013-04-06 04:32:00,
2013-04-05 23:37:00,34.3,26.2,30.17,East,79,9.2,9.2,72,0.00,BKN,,0.00,0.0,WeatherDisplay:10.37,2013-04-06 04:37:00,
2013-04-05 23:42:00,34.2,26.1,30.17,ENE,66,7.0,7.0,72,0.00,BKN,,0.00,0.0,WeatherDisplay:10.37,2013-04-06 04:42:00,
2013-04-05 23:47:00,34.2,26.1,30.17,ENE,65,5.8,5.8,72,0.00,SCT,,0.00,0.0,WeatherDisplay:10.37,2013-04-06 04:47:00,
2013-04-05 23:52:00,34.1,26.3,30.17,NE,50,8.1,8.1,73,0.00,SCT,,0.00,0.0,WeatherDisplay:10.37,2013-04-06 04:52:00,
2013-04-05 23:57:00,34.0,26.3,30.16,ENE,69,6.9,6.9,73,0.00,SCT,,0.00,0.0,WeatherDisplay:10.37,2013-04-06 04:57:00,